DECAYED
Showing default

UNICORN-2M, 58726 (Decayed)

Orbit data source: Space-Track

UNICORN-2M, 58726 was a payload satellite owned by Alba Orbital (DE) in SSO that was launched on Fri, 01 Dec 2023 UTC via an FALCON 9 launch vehicle from the Air Force Western Test Range (AFWTR). Payload-class satellites include a variety of spacecraft equipped with specific instruments for various scientific and technological missions. These include communications satellites like Starlink; space stations such as the ISS; scientific satellites like the Hubble; Earth observation satellites from companies like Planet Labs, Umbra, and HawkEye 360; GPS; miniature CubeSats for education and research; and military/defense satellites.

Not visible in the next 10 days
Identifier
58726, 2023-185Q
Orbit
Decayed
Country
Flag of DEDE / GER
Related business
Manufacturer
Alba Orbital
Mission
Decayed Commercial Imaging
Bus & Motor
POCKETQUBE 3P, Unknown motor
Mass
~0.75 kg wet, ~0.75 kg dry
Launch date (UTC)
2023-12-01 (3 years ago)
Launch vehicle
FALCON 9
Launch site
Air Force Western Test Range (AFWTR)
Object type
Payload
Rocket body
Debris
Shape & HBR
Box + 2 Pan, 0.2 m
Radar Cross Section
0.016 m², Medium (>0.1 m² and < 1m²)

Expand to show TLE details & history
Last TLE update: 6 months ago

TLE from 6 months ago
0 UNICORN-2M
1 58726U 23185Q   26047.73080617  .00634840  00000-0  31271-2 0  9999
2 58726  97.5498 139.9015 0006986 286.3482  73.7016 15.80469206117792
Epoch: 2026-02-16T17:32Z
TLE epoch observation values (Epoch: 2026-02-16T17:32:21.653Z)
Latitude
-0.00008°
Longitude
90.09034°
Altitude
330.968 km
Speed
7.711 km/s
True Right ascension
09h 19m 36s
True Declination
0° 00' 00"
Sunlit
Object was in full shadow at epoch
Visualization orbit readout
Latitude
Unknown
Longitude
Unknown
Altitude
Unknown
Speed
Unknown
Apparent Right ascension
Unknown
Apparent Declination
Unknown
Sunlit
N/A
Visualization observer readout
Local Sidereal Time
15:23:15
Azimuth
Unknown
Elevation
Unknown
Doppler factor
Unknown
Orbital elements
Apogee altitude
330.688 km
Perigee altitude
321.321 km
Semi-major axis
6,704.142 km
Eccentricity
0.0007
Inclination
97.5498°
RAAN
139.9015°
Arg. of periapsis
286.3482°
True anomaly
73.77846°
Mean anomaly
73.7016°
Eccentric anomaly
73.74003°
Mean motion
3.95392 °/min
Orbital period
91.05 mins
BSTAR
0.0031271
Loading maneuver chart data...
Computing Atmospheric mass density...
Loading historical data...
Loading historical data...
Loading historical data...
Loading historical data...
Loading historical data...
Loading historical data...
Loading historical data...

Documentation

Showing up to 5 results
|